Weather History for 68828 - April, 2014

Change the Weather History Date:

Tuesday, April 8, 2014

  Actual Average Record
Temperature  
Mean Temperature 72 °F -  
Max Temperature 86 °F 69 °F - ()
Min Temperature 59 °F 52 °F - ()
Cooling Degree Days 8    
Growing Degree Days 22 (Base 50)    
Moisture  
Dew Point 58 °F    
Average Humidity 56    
Maximum Humidity 88    
Minimum Humidity 31    
Precipitation  
Precipitation 0.00 in - - ()
Sea Level Pressure  
Sea Level Pressure 30.11 in    
Wind  
Wind Speed 4 mph ()    
Max Wind Speed 8 mph    
Max Gust Speed -    
Visibility 10.5 miles    
Events      
T = Trace of Precipitation, MM = Missing Value Source: Averaged Metar Reports

Daily Weather History Graph

Daily Weather History Graph

Search for Another Location

Airport or City:

Trip Planner

Search our weather history database for the weather conditions in past years. The results will help you decide how hot, cold, wet, or windy it might be!

Date:

Astronomy

Apr. 08, 2014 Rise Set
Actual Time 6:47 AM SAST 6:16 PM SAST
Civil Twilight 6:22 AM SAST 6:41 PM SAST
Nautical Twilight 5:53 AM SAST 7:10 PM SAST
Astronomical Twilight 5:24 AM SAST 7:39 PM SAST
Moon 2:13 PM SAST (4/8) 12:21 AM SAST (4/8)
Length of Visible Light 12h 18m
Length of Day
11h 28m
First Quarter, 60% of the Moon is Illuminated
Apr 8
First Quarter
Apr 15
Full
Apr 22
Last Quarter
Apr 29
New
May 7
First Quarter

Hourly Weather History & Observations

Time (SAST) Temp. Heat Index Dew Point Humidity Pressure Visibility Wind Dir Wind Speed Gust Speed Precip Events Conditions
2:00 AM 63 °F - 53 °F 63% 30.09 in 19 mi WNW 4.6 mph - -  
5:00 AM 61 °F - 53 °F 68% 30.12 in 12 mi NW 4.6 mph - -  
5:00 AM 60.8 °F - 53.6 °F 77% 30.09 in - NW 4.6 mph - N/A   Clear
6:00 AM 62.6 °F - 51.8 °F 68% 30.12 in - NNW 4.6 mph - N/A   Clear
7:00 AM 62.6 °F - 53.6 °F 72% 30.12 in - North 2.3 mph - N/A   Clear
8:00 AM 69 °F - 58 °F 61% 30.15 in 12 mi North 3.5 mph - -   Clear
8:00 AM 69.8 °F - 59.0 °F 68% 30.12 in - North 3.5 mph - N/A   Clear
9:00 AM 78.8 °F - 59.0 °F 51% 30.15 in - Calm Calm - N/A   Clear
10:00 AM 80.6 °F 80.8 °F 57.2 °F 45% 30.15 in - Variable 2.3 mph - N/A   Clear
11:00 AM 83 °F - 57 °F 31% 30.15 in 12 mi WSW 3.5 mph - -   Clear
11:00 AM 84.2 °F 83.5 °F 57.2 °F 40% 30.12 in - WSW 3.5 mph - N/A   Clear
12:00 PM 86.0 °F 86.1 °F 60.8 °F 43% 30.12 in - Variable 2.3 mph - N/A   Clear
1:00 PM 84.2 °F 83.5 °F 57.2 °F 40% 30.09 in - SSW 8.1 mph - N/A   Clear
2:00 PM 83 °F - 58 °F 33% 30.07 in 12 mi South 6.9 mph - -   Scattered Clouds
2:00 PM 84.2 °F 83.8 °F 59.0 °F 42% 30.09 in 6.2 mi South 6.9 mph - N/A   Partly Cloudy
3:00 PM 80.6 °F 81.1 °F 59.0 °F 48% 30.09 in 6.2 mi South 6.9 mph - N/A   Partly Cloudy
4:00 PM 78.8 °F - 57.2 °F 47% 30.09 in - South 5.8 mph - N/A   Clear
5:00 PM 79 °F - 59 °F 40% 30.08 in 12 mi NE 4.6 mph - -   Scattered Clouds
5:00 PM 78.8 °F - 59.0 °F 51% 30.09 in 6.2 mi NE 5.8 mph - N/A   Partly Cloudy
6:00 PM 73.4 °F - 60.8 °F 65% 30.09 in 6.2 mi South 3.5 mph - N/A   Partly Cloudy
7:00 PM 66.2 °F - 62.6 °F 88% 30.12 in - SSW 3.5 mph - N/A   Clear
8:00 PM 66 °F - 60 °F 74% 30.11 in 12 mi NNW 2.3 mph - -  
8:00 PM 66.2 °F - 60.8 °F 83% 30.12 in - North 3.5 mph - N/A   Clear